User: anonymous   Login
Location: Fort Wayne
(41.1310°N, 85.1290°W)
Time: 08:18:04
(UTC-04:00)
Language:

Cosmos 2082 - Orbit

View from above orbital plane
View from above orbital plane
View from above satellite
View from above satellite

Ground track
Ground track

The orbit data is extracted from the following two-line orbital elements,

1 20624U 90046A   15247.11403091  .00000009  00000-0  29498-4 0  9996
2 20624  71.0399 139.3349 0016745 297.8382  62.1043 14.14163201305006
Epoch (UTC): 04 September 2015 02:44:12
Eccentricity: 0.0016745
inclination: 71.0399°
perigee height: 833 km
apogee height: 857 km
right ascension of ascending node: 139.3349°
argument of perigee: 297.8382°
revolutions per day: 14.14163201
mean anomaly at epoch: 62.1043°
orbit number at epoch: 30500

The dashed part of the orbit path shows where the satellite is in the earth's shadow,  

DLR